SBSNSBPJ

Guest
Details From SBSN - SANTAREM
To SBPJ - Tocantins
Flight Number -
Tags generated
Created
Modified
Stats Distance 667 nm / 1,236 km
Max Altitude 0 ft / 0 m
Waypoints 6
Social Downloads 2
Likes 0
Share VATSIM

Download

Looking for another format? Having issues loading an existing format? Contact us
Advertisement - Login to hide

Notes

None

Route

SBSN RESIN UZ13 TEREB SBPJ

ID Type Via Altitude Latitude Longitude Leg Dist Tot Dist Heading (true) Name
O SBSN APT - 0 ft / 0 m -2.42243˚ -54.79279˚ - 0 nm - SANTAREM
RESIN FIX - 0 ft / 0 m -2.22975˚ -53.60925˚ 71 nm 71 nm 81° / 81° -
ANGUK FIX UZ13 (AWY-HI) 0 ft / 0 m -4.55389˚ -52.37528˚ 157 nm 229 nm 152° / 152° -
UGUTO FIX UZ13 (AWY-HI) 0 ft / 0 m -8.03633˚ -50.53017˚ 236 nm 466 nm 152° / 152° -
TEREB FIX UZ13 (AWY-HI) 0 ft / 0 m -9.95050˚ -49.50383˚ 130 nm 596 nm 152° / 152° -
O SBPJ APT - 0 ft / 0 m -10.29152˚ -48.35697˚ 70 nm 667 nm 107° / 107° Tocantins

Altitude Profile

Advertisement - Login to hide

Weather


0- 5 10 15 20 25 30 35+ Temperature / ° C

Clouds and Precipitation
Forecast for 2018-05-26 00:00 UTC. Updated 5 hours ago

Ground ~20,000 ft ~40,000 ft Winds

SBSN

Details ICAO SBSN (STM)
Name SANTAREM
Region Brazil
Timezone America/Santarem (UTC-3.0)
Stats Elevation 198 ft / 60 m (AMSL)
Location -2.422430° -54.792788°
Runways 1
Magnetic Variation 18.380° W

METAR

SBSN 260400Z 13002KT 9999 FEW020 BKN100 25/24 Q1012

Decode

TAF

TAF SBSN 252200Z 2600/2624 09003KT 9999 FEW015 FEW025TCU TN24/2606Z TX30/2617Z PROB30 TEMPO 2601/2604 TS FEW020 FEW025CB BECMG 2605/2607 12005KT FEW017 BECMG 2613/2615 06010KT SCT020 RMK PCQ

Decode

Departure Runways

ID Width Length Bearing (true) Bearing (mag) Surface Threshold Offset Overrun Length
10 148 ft / 45 m 7,873 ft / 2,400 m 80.69° 99.07° Asphalt 0 ft / 0 m 245 ft / 75 m
28 148 ft / 45 m 7,873 ft / 2,400 m 260.69° 279.07° Asphalt 0 ft / 0 m 202 ft / 62 m

SBPJ

Details ICAO SBPJ (PMW)
Name Tocantins
Region Brazil
Timezone America/Araguaina (UTC-3.0)
Stats Elevation 774 ft / 236 m (AMSL)
Location -10.291524° -48.356972°
Runways 1
Magnetic Variation 21.286° W

METAR

SBPJ 260300Z 14003KT CAVOK 25/20 Q1014

Decode

TAF

TAF SBPJ 252200Z 2600/2612 10004KT 9999 FEW045 TN23/2608Z TX30/2612Z BECMG 2601/2603 CAVOK BECMG 2606/2608 16007KT FEW045 BECMG 2610/2612 13010KT RMK PEW

Decode

Destination Runways

ID Width Length Bearing (true) Bearing (mag) Surface Threshold Offset Overrun Length
14 148 ft / 45 m 8,194 ft / 2,497 m 124.06° 145.35° Asphalt 0 ft / 0 m 0 ft / 0 m
32 148 ft / 45 m 8,194 ft / 2,497 m 304.06° 325.35° Asphalt 0 ft / 0 m 0 ft / 0 m

Popular Alternatives